OK1HOL-13 Weather Reports


time (UTC)temp
C
wind
direction
speed
KPH
gust
KPH
rain 1hr
cm
rain 24hr
cm
rain mn
cm
humidity
%
barometer
mb
20260506060602 14 0.0 0.0 0.00 0.00 0.00 72 1006.7
20260506050603 13 0.0 0.0 0.00 0.00 0.00 76 1007.0
20260506044603 13 0.0 0.0 0.00 0.00 0.00 76 1006.6
20260506043603 13 0.0 0.0 0.00 0.00 0.00 79 1006.6
20260506042603 13 0.0 0.0 0.00 0.00 0.00 80 1006.5
20260506041603 13 0.0 0.0 0.00 0.00 0.00 80 1006.7
20260506040603 13 0.0 0.0 0.00 0.00 0.00 81 1006.5
20260506035603 13 0.0 0.0 0.00 0.00 0.00 80 1006.2
20260506034602 13 0.0 0.0 0.00 0.00 0.00 80 1006.1
20260506033603 13 0.0 0.0 0.00 0.00 0.00 80 1006.1
20260506032603 13 0.0 0.0 0.00 0.00 0.00 82 1006.1
20260506031603 13 0.0 0.0 0.00 0.00 0.00 83 1006.1
20260506030603 13 0.0 0.0 0.00 0.00 0.00 82 1006.2
20260506025603 13 0.0 0.0 0.00 0.00 0.00 82 1006.2
20260506024603 13 0.0 0.0 0.00 0.00 0.00 83 1006.2
20260506023603 13 0.0 0.0 0.00 0.00 0.00 83 1006.3
20260506022603 13 0.0 0.0 0.00 0.00 0.00 83 1006.4
20260506021603 13 0.0 0.0 0.00 0.00 0.00 85 1006.4
20260506020602 13 0.0 0.0 0.00 0.00 0.00 87 1006.3
20260506015602 13 0.0 0.0 0.00 0.00 0.00 87 1006.4
20260506014602 13 0.0 0.0 0.00 0.00 0.00 88 1006.2
20260506013602 13 0.0 0.0 0.00 0.00 0.00 87 1006.2
20260506012603 14 0.0 0.0 0.00 0.00 0.00 86 1006.1
20260506011606 14 0.0 0.0 0.00 0.00 0.00 85 1005.9
20260506010601 14 0.0 0.0 0.00 0.00 0.00 83 1005.9
20260506005601 15 0.0 0.0 0.00 0.00 0.00 82 1005.9
20260506004601 14 0.0 0.0 0.00 0.00 0.00 84 1006.0
20260506003601 15 0.0 0.0 0.00 0.00 0.00 84 1006.0
20260506002601 14 0.0 0.0 0.00 0.00 0.00 87 1006.0
20260506001601 14 0.0 0.0 0.00 0.00 0.00 87 1006.0
20260506000601 14 0.0 0.0 0.00 0.00 0.00 87 1005.8
20260505235601 15 0.0 0.0 0.00 0.00 0.00 87 1005.9
20260505234601 15 0.0 0.0 0.00 0.00 0.00 85 1005.9
20260505233601 15 0.0 0.0 0.00 0.00 0.00 85 1006.0
20260505232601 15 0.0 0.0 0.00 0.00 0.00 84 1006.3
20260505231601 14 0.0 0.0 0.00 0.00 0.00 85 1006.3
20260505230601 14 0.0 0.0 0.00 0.00 0.00 86 1006.2
20260505225601 14 0.0 0.0 0.00 0.00 0.00 86 1006.3
20260505224601 14 0.0 0.0 0.00 0.00 0.00 86 1006.2
20260505223601 14 0.0 0.0 0.00 0.00 0.00 88 1006.3
20260505222601 14 0.0 0.0 0.00 0.00 0.00 87 1006.2
20260505221606 14 0.0 0.0 0.00 0.00 0.00 87 1006.3
20260505220601 15 0.0 0.0 0.00 0.00 0.00 87 1006.4
20260505215601 15 0.0 0.0 0.00 0.00 0.00 87 1006.4
20260505214601 15 0.0 0.0 0.00 0.00 0.00 88 1006.5
20260505213601 15 0.0 0.0 0.00 0.00 0.00 87 1006.5
20260505212601 16 0.0 0.0 0.00 0.00 0.00 85 1006.4
20260505211601 16 0.0 0.0 0.00 0.00 0.00 82 1006.3
20260505210601 16 0.0 0.0 0.00 0.00 0.00 76 1006.4
20260505205601 17 0.0 0.0 0.00 0.00 0.00 69 1006.0
20260505204601 18 0.0 0.0 0.00 0.00 0.00 63 1005.4
20260505203601 18 0.0 0.0 0.00 0.00 0.00 61 1005.0
20260505202601 19 0.0 0.0 0.00 0.00 0.00 57 1004.5
20260505201601 19 0.0 0.0 0.00 0.00 0.00 51 1004.3
20260505200601 18 0.0 0.0 0.00 0.00 0.00 53 1004.2
20260505195601 19 0.0 0.0 0.00 0.00 0.00 52 1003.7
20260505194601 18 0.0 0.0 0.00 0.00 0.00 53 1003.5
20260505193601 19 0.0 0.0 0.00 0.00 0.00 53 1003.3
20260505192601 19 0.0 0.0 0.00 0.00 0.00 52 1003.3
20260505191601 19 0.0 0.0 0.00 0.00 0.00 52 1003.3
20260505190601 19 0.0 0.0 0.00 0.00 0.00 50 1003.5
20260505185601 20 0.0 0.0 0.00 0.00 0.00 49 1003.6
20260505184601 20 0.0 0.0 0.00 0.00 0.00 46 1003.7
20260505183601 20 0.0 0.0 0.00 0.00 0.00 45 1003.6
20260505182601 20 0.0 0.0 0.00 0.00 0.00 47 1003.4
20260505181601 20 0.0 0.0 0.00 0.00 0.00 47 1003.4
20260505180601 20 0.0 0.0 0.00 0.00 0.00 46 1003.4
20260505175601 20 0.0 0.0 0.00 0.00 0.00 45 1003.6
20260505174601 20 0.0 0.0 0.00 0.00 0.00 45 1003.8
20260505173601 21 0.0 0.0 0.00 0.00 0.00 43 1004.0
20260505172601 21 0.0 0.0 0.00 0.00 0.00 43 1004.0
20260505171601 21 0.0 0.0 0.00 0.00 0.00 43 1004.1
20260505170601 21 0.0 0.0 0.00 0.00 0.00 43 1004.2
20260505165601 21 0.0 0.0 0.00 0.00 0.00 44 1004.3
20260505164601 22 0.0 0.0 0.00 0.00 0.00 42 1004.3
20260505163601 22 0.0 0.0 0.00 0.00 0.00 39 1004.2
20260505162601 25 0.0 0.0 0.00 0.00 0.00 30 1003.9
20260505161601 25 0.0 0.0 0.00 0.00 0.00 29 1003.7
20260505160601 26 0.0 0.0 0.00 0.00 0.00 28 1003.7
20260505152601 26 0.0 0.0 0.00 0.00 0.00 29 1004.2
20260505151601 25 0.0 0.0 0.00 0.00 0.00 30 1004.2
20260505150601 25 0.0 0.0 0.00 0.00 0.00 32 1004.3
20260505140601 26 0.0 0.0 0.00 0.00 0.00 27 1004.9
20260505124559 26 0.0 0.0 0.00 0.00 0.00 28 1005.6
20260505123600 27 0.0 0.0 0.00 0.00 0.00 29 1005.6
20260505122600 26 0.0 0.0 0.00 0.00 0.00 28 1005.8
20260505121600 26 0.0 0.0 0.00 0.00 0.00 28 1005.9
20260505120600 26 0.0 0.0 0.00 0.00 0.00 29 1006.1
20260505115600 26 0.0 0.0 0.00 0.00 0.00 28 1006.2
20260505114600 26 0.0 0.0 0.00 0.00 0.00 29 1006.3
20260505113600 26 0.0 0.0 0.00 0.00 0.00 30 1006.4
20260505112559 26 0.0 0.0 0.00 0.00 0.00 30 1006.4
20260505111600 27 0.0 0.0 0.00 0.00 0.00 27 1006.6
20260505110559 25 0.0 0.0 0.00 0.00 0.00 31 1006.7
20260505101600 25 0.0 0.0 0.00 0.00 0.00 33 1007.1
20260505100600 24 0.0 0.0 0.00 0.00 0.00 34 1007.1
20260505095600 23 0.0 0.0 0.00 0.00 0.00 35 1007.1
20260505094559 24 0.0 0.0 0.00 0.00 0.00 36 1007.2
20260505092600 23 0.0 0.0 0.00 0.00 0.00 38 1007.5
20260505091600 23 0.0 0.0 0.00 0.00 0.00 40 1007.6
20260505090600 23 0.0 0.0 0.00 0.00 0.00 40 1007.7
20260505085600 23 0.0 0.0 0.00 0.00 0.00 41 1007.8
20260505084559 22 0.0 0.0 0.00 0.00 0.00 43 1007.8
20260505083600 22 0.0 0.0 0.00 0.00 0.00 44 1007.9
20260505082600 22 0.0 0.0 0.00 0.00 0.00 42 1007.9
20260505081559 21 0.0 0.0 0.00 0.00 0.00 44 1007.9
20260505080600 21 0.0 0.0 0.00 0.00 0.00 44 1007.9
20260505075600 21 0.0 0.0 0.00 0.00 0.00 44 1008.0
20260505074600 21 0.0 0.0 0.00 0.00 0.00 47 1008.1
20260505073600 21 0.0 0.0 0.00 0.00 0.00 48 1008.1
20260505072600 20 0.0 0.0 0.00 0.00 0.00 51 1008.2
20260505071600 20 0.0 0.0 0.00 0.00 0.00 50 1008.3
20260505070600 20 0.0 0.0 0.00 0.00 0.00 49 1008.3